Stations météo

réclame
Mon MeteoGroup
Bournemouth Airport, Grande-Bretagne (3862): Température de l'air & dewpoint: 21.01.2020 04:00:00 - 27.01.2020 04:00:00 (GMT)Bournemouth Airport, Grande-Bretagne (3862): Température de l'air -20cm & Température de l'air -100cm: 21.01.2020 04:00:00 - 27.01.2020 04:00:00 (GMT)Bournemouth Airport, Grande-Bretagne (3862): Vitesse du vent & gusts: 21.01.2020 04:00:00 - 27.01.2020 04:00:00 (GMT)Bournemouth Airport, Grande-Bretagne (3862): Direction du vent: 21.01.2020 04:00:00 - 27.01.2020 04:00:00 (GMT)Bournemouth Airport, Grande-Bretagne (3862): reduced air pressure: 21.01.2020 04:00:00 - 27.01.2020 04:00:00 (GMT)Bournemouth Airport, Grande-Bretagne (3862): visibility: 21.01.2020 04:00:00 - 27.01.2020 04:00:00 (GMT)Bournemouth Airport, Grande-Bretagne (3862): Ensoleillement: 21.01.2020 04:00:00 - 27.01.2020 04:00:00 (GMT)Bournemouth Airport, Grande-Bretagne (3862): Quantités de précipitations: 21.01.2020 04:00:00 - 27.01.2020 04:00:00 (GMT)
Date & Time tt [°C] td [°C] tt -20cm [°C] tt -100cm [°C] ff [km/h] ff [knt] fx [km/h] fx [knt] dd ppp [hPa] vv [km] sd [min] rr [mm]
27.01.2020 04:00:00 9,3 7,0 - - 18 10 - - SW 1004,6 25 0 0,0
27.01.2020 03:00:00 9,0 7,2 - - 16 9 - - SW 1005,4 24 0 0,0
27.01.2020 02:00:00 8,6 6,9 - - 18 10 - - SW 1005,6 25 0 0,0
27.01.2020 01:00:00 9,0 7,5 - - 16 9 - - SW 1006,0 29 0 0,0
27.01.2020 00:00:00 9,2 8,1 - - 15 8 - - SW 1006,5 30 - 0,0
26.01.2020 23:00:00 9,2 8,0 - - 15 8 - - SW 1006,4 10 0 0,0
26.01.2020 22:00:00 9,3 8,6 - - 15 8 - - SW 1006,6 10 0 0,0
26.01.2020 21:00:00 8,5 8,0 - - 11 6 - - SW 1006,6 10 0 0,0
26.01.2020 20:00:00 8,7 8,3 - - 13 7 - - WSW 1006,8 13 0 0,0
26.01.2020 19:00:00 8,3 7,6 - - 8 4 - - WSW 1006,5 10 0 0,0
26.01.2020 18:00:00 9,3 8,6 - - 16 9 - - WSW 1006,6 10 0 0,0
26.01.2020 17:00:00 10,0 9,0 - - 24 13 50 27 SW 1006,4 16 0 0,4
26.01.2020 16:00:00 9,9 9,4 - - 34 18 52 28 SSW 1006,2 3,0 0 3,2
26.01.2020 15:00:00 9,7 9,1 - - 26 14 48 26 SSW 1007,1 1,6 0 2,4
26.01.2020 14:00:00 9,7 9,0 - - 28 15 - - SSW 1008,1 4,0 0 2,4
26.01.2020 13:00:00 9,9 8,8 - - 26 14 - - SSW 1008,9 7 0 0,2
26.01.2020 12:00:00 9,8 8,7 - - 22 12 - - SSW 1009,7 10 0 0,2
26.01.2020 11:00:00 10,0 8,0 - - 24 13 - - SSW 1010,5 14 0 0,0
26.01.2020 10:00:00 9,8 8,2 - - 18 10 - - SSW 1010,8 10 0 0,0
26.01.2020 09:00:00 8,7 6,8 6,7 7,2 18 10 - - SSW 1011,0 10 0 0,0
26.01.2020 08:00:00 8,5 6,3 - - 15 8 - - S 1011,0 26 0 0,0
26.01.2020 07:00:00 9,0 7,9 - - 15 8 - - SSW 1011,2 12 0 0,0
26.01.2020 06:00:00 9,0 7,9 - - 15 8 - - S 1011,3 13 0 0,0
26.01.2020 05:00:00 9,0 7,9 - - 13 7 - - S 1011,8 15 0 0,0
26.01.2020 04:00:00 8,7 7,4 - - 21 11 - - S 1011,9 10 0 0,0
26.01.2020 03:00:00 8,6 7,4 - - 16 9 - - S 1012,6 10 0 0,0
26.01.2020 02:00:00 9,1 7,7 - - 16 9 - - S 1012,8 13 0 0,0
26.01.2020 01:00:00 9,1 7,1 - - 16 9 - - SSW 1013,3 15 0 0,0
26.01.2020 00:00:00 9,0 7,2 - - 13 7 - - S 1013,8 18 - 0,0
25.01.2020 23:00:00 8,6 6,8 - - 8 4 - - S 1013,9 17 0 0,0
25.01.2020 22:00:00 8,5 7,1 - - 13 7 - - SSW 1014,4 12 0 0,0
25.01.2020 21:00:00 8,3 7,2 - - 8 4 - - SSW 1014,5 5 0 0,0
25.01.2020 20:00:00 8,3 7,2 - - 11 6 - - SSW 1014,9 9 0 0,0
25.01.2020 19:00:00 8,1 7,3 - - 13 7 - - SE 1015,2 4,5 0 0,0
25.01.2020 18:00:00 7,8 7,1 - - 11 6 - - SE 1015,2 3,5 0 0,0
25.01.2020 17:00:00 7,6 6,7 - - 15 8 - - SSE 1015,7 3,0 0 0,0
25.01.2020 16:00:00 7,6 6,6 - - 16 9 - - SE 1015,7 8 0 0,0
25.01.2020 15:00:00 7,6 6,5 - - 16 9 - - SE 1016,0 10 0 0,0
25.01.2020 14:00:00 7,7 6,5 - - 21 11 - - SE 1016,7 9 0 0,0
25.01.2020 13:00:00 7,7 6,4 - - 22 12 - - SE 1017,5 7 0 0,0
25.01.2020 12:00:00 8,0 6,7 - - 16 9 - - SE 1018,3 9 0 0,0
25.01.2020 11:00:00 7,1 6,2 - - 13 7 - - ESE 1018,8 3,0 0 0,0
25.01.2020 10:00:00 7,2 5,8 - - 9 5 - - SE 1019,0 8 0 0,0
25.01.2020 09:00:00 6,7 5,2 6,2 7,2 9 5 - - ESE 1019,0 5 0 0,0
25.01.2020 08:00:00 6,4 5,1 - - 9 5 - - SE 1019,2 5 0 0,0
25.01.2020 07:00:00 6,3 5,0 - - 9 5 - - SE 1019,3 5 0 0,0
25.01.2020 06:00:00 6,6 4,4 - - 11 6 - - SSE 1019,2 10 0 0,0
25.01.2020 05:00:00 6,1 3,8 - - 5 3 - - ESE 1019,3 15 0 0,0
25.01.2020 04:00:00 5,7 3,7 - - 5 3 - - E 1019,7 29 0 0,0
25.01.2020 03:00:00 5,2 4,2 - - 4 2 - - ENE 1020,2 15 0 0,0
25.01.2020 02:00:00 5,5 3,7 - - 0 0 - - N 1020,7 26 0 0,0
25.01.2020 01:00:00 5,7 3,6 - - 5 3 - - NE 1021,0 28 0 0,0
25.01.2020 00:00:00 6,5 3,2 - - 4 2 - - SE 1021,3 35 - 0,0
24.01.2020 23:00:00 6,0 4,8 - - 4 2 - - SE 1021,6 17 0 0,0
24.01.2020 22:00:00 6,0 5,1 - - 5 3 - - E 1021,9 10 0 0,0
24.01.2020 21:00:00 5,7 4,9 - - 4 2 - - NNE 1022,2 9 0 0,0
24.01.2020 20:00:00 5,9 4,9 - - 2 1 - - N 1022,3 10 0 0,0
24.01.2020 19:00:00 6,1 4,9 - - 2 1 - - NNE 1022,1 10 0 0,0
24.01.2020 18:00:00 6,3 4,9 - - 4 2 - - N 1022,0 10 0 0,0
24.01.2020 17:00:00 6,5 4,7 - - 4 2 - - NNE 1022,0 10 0 0,0
24.01.2020 16:00:00 6,9 4,9 - - 5 3 - - NNE 1022,0 30 0 0,0
24.01.2020 15:00:00 7,2 4,4 - - 8 4 - - N 1022,2 10 0 0,2
24.01.2020 14:00:00 7,4 4,5 - - 8 4 - - ENE 1022,5 10 0 0,0
24.01.2020 13:00:00 7,0 4,9 - - 9 5 - - E 1023,2 10 0 0,0
24.01.2020 12:00:00 6,2 4,5 - - 15 8 - - NNE 1024,0 10 0 0,0
24.01.2020 11:00:00 6,3 4,8 - - 11 6 - - NE 1024,4 10 0 0,0
24.01.2020 10:00:00 6,2 4,9 - - 8 4 - - NE 1024,1 9 0 0,0
24.01.2020 09:00:00 5,8 5,0 5,9 7,2 4 2 - - E 1023,9 6 0 0,0
24.01.2020 08:00:00 5,5 4,9 - - 11 6 - - N 1024,0 4,0 0 0,0
24.01.2020 07:00:00 5,4 5,0 - - 8 4 - - N 1023,7 4,0 0 0,0
24.01.2020 06:00:00 5,4 5,0 - - 2 1 - - E 1023,6 4,0 0 0,0
24.01.2020 05:00:00 5,3 4,8 - - 5 3 - - NNE 1023,7 3,7 0 0,0
24.01.2020 04:00:00 5,2 4,8 - - 5 3 - - N 1024,3 3,6 0 0,0
24.01.2020 03:00:00 5,2 4,6 - - 5 3 - - N 1024,7 3,1 0 0,0
24.01.2020 02:00:00 5,3 4,6 - - 5 3 - - N 1025,4 3,6 0 0,0
24.01.2020 01:00:00 5,6 4,4 - - 8 4 - - NNE 1026,0 6 0 0,0
24.01.2020 00:00:00 5,8 4,4 - - 8 4 - - NNE 1026,6 12 - 0,0
23.01.2020 23:00:00 5,8 4,3 - - 8 4 - - NNE 1027,0 11 0 0,0
23.01.2020 22:00:00 5,7 4,3 - - 5 3 - - NE 1027,3 7 0 0,0
23.01.2020 21:00:00 5,8 4,4 - - 11 6 - - NE 1027,2 9 0 0,0
23.01.2020 20:00:00 5,9 4,5 - - 8 4 - - ENE 1027,4 8 0 0,0
23.01.2020 19:00:00 5,9 4,4 - - 8 4 - - ENE 1027,6 12 0 0,0
23.01.2020 18:00:00 6,1 4,3 - - 4 2 - - ENE 1028,1 10 0 0,0
23.01.2020 17:00:00 6,2 3,8 - - 5 3 - - E 1028,5 10 0 0,0
23.01.2020 16:00:00 6,4 3,9 - - 9 5 - - E 1028,9 10 0 0,0
23.01.2020 15:00:00 6,8 4,1 - - 9 5 - - E 1029,3 10 0 0,0
23.01.2020 14:00:00 6,9 4,5 - - 9 5 - - E 1029,9 10 0 0,0
23.01.2020 13:00:00 6,9 4,6 - - 11 6 - - E 1031,0 30 0 0,0
23.01.2020 12:00:00 6,8 4,9 - - 16 9 - - ENE 1031,7 10 0 0,0
23.01.2020 11:00:00 6,8 5,0 - - 8 4 - - ENE 1032,3 10 0 0,0
23.01.2020 10:00:00 6,6 5,0 - - 11 6 - - E 1032,6 8 0 0,0
23.01.2020 09:00:00 6,4 5,4 5,2 7,2 8 4 - - ENE 1032,7 6 0 0,0
23.01.2020 08:00:00 6,3 5,4 - - 9 5 - - ENE 1032,8 6 0 0,0
23.01.2020 07:00:00 6,3 5,4 - - 9 5 - - ENE 1032,8 9 0 0,0
23.01.2020 06:00:00 6,3 5,2 - - 9 5 - - ENE 1033,0 13 0 0,0
23.01.2020 05:00:00 6,3 5,3 - - 11 6 - - NE 1033,3 12 0 0,0
23.01.2020 04:00:00 6,3 5,2 - - 13 7 - - ENE 1033,6 22 0 0,0
23.01.2020 03:00:00 6,3 5,1 - - 9 5 - - E 1034,3 24 0 0,0
23.01.2020 02:00:00 6,5 5,1 - - 15 8 - - ENE 1034,7 30 0 0,0
23.01.2020 01:00:00 6,3 5,0 - - 11 6 - - ENE 1035,2 22 0 0,0
23.01.2020 00:00:00 6,5 5,2 - - 13 7 - - E 1035,7 21 - 0,0
22.01.2020 23:00:00 6,8 5,4 - - 11 6 - - E 1036,0 16 0 0,0
22.01.2020 22:00:00 6,8 5,8 - - 15 8 - - ENE 1035,9 18 0 0,0
22.01.2020 21:00:00 6,8 6,0 - - 15 8 - - ENE 1036,1 13 0 0,0
22.01.2020 20:00:00 6,8 6,2 - - 9 5 - - E 1036,2 8 0 0,0
22.01.2020 19:00:00 6,8 6,3 - - 9 5 - - ENE 1036,2 6 0 0,0
22.01.2020 18:00:00 6,7 6,2 - - 8 4 - - NE 1036,1 4,7 0 0,0
22.01.2020 17:00:00 6,8 6,3 - - 5 3 - - - 1036,1 4,5 0 0,0
22.01.2020 16:00:00 6,9 6,6 - - 8 4 - - - 1036,1 4,0 0 0,0
22.01.2020 15:00:00 6,8 6,5 - - 8 4 - - - 1036,2 5 0 0,0
22.01.2020 14:00:00 6,4 6,2 - - 5 3 - - - 1036,7 3,0 0 0,0
22.01.2020 13:00:00 5,9 5,6 - - 8 4 - - - 1037,5 2,0 0 0,0
22.01.2020 12:00:00 5,3 5,1 - - 9 5 - - NNE 1037,8 1,8 0 0,0
22.01.2020 11:00:00 4,3 4,1 - - 5 3 - - N 1038,0 0,5 0 0,0
22.01.2020 10:00:00 3,6 3,4 - - 4 2 - - NNW 1037,7 0,4 0 0,0
22.01.2020 09:00:00 2,7 2,5 4,7 7,5 5 3 - - NNW 1037,8 1,6 0 0,0
22.01.2020 08:00:00 1,8 1,6 - - 8 4 - - N 1038,0 1,5 0 0,0
22.01.2020 07:00:00 0,8 0,6 - - 4 2 - - NNW 1037,8 4,0 0 0,0
22.01.2020 06:00:00 0,3 0,0 - - 4 2 - - NW 1037,9 5 0 0,0
22.01.2020 05:00:00 -0,1 -0,3 - - 5 3 - - N 1038,3 4,6 0 0,0
22.01.2020 04:00:00 -0,7 -0,9 - - 0 0 - - N 1038,4 3,8 0 0,0
22.01.2020 03:00:00 -2,4 -2,7 - - 0 0 - - N 1038,9 5 0 0,0
22.01.2020 02:00:00 -3,3 -3,6 - - 4 2 - - NNW 1039,4 0,1 0 0,0
22.01.2020 01:00:00 -3,8 -4,1 - - 4 2 - - WNW 1040,0 0,1 0 0,0
22.01.2020 00:00:00 -3,3 -3,7 - - 5 3 - - WNW 1040,5 - - 0,0
21.01.2020 23:00:00 -2,0 -2,4 - - 4 2 - - NNW 1040,3 1,1 0 0,0
21.01.2020 22:00:00 -1,9 -2,3 - - 2 1 - - NNW 1040,2 5 0 0,0
21.01.2020 21:00:00 -0,9 -1,4 - - 5 3 - - NNW 1040,5 3,2 0 0,0
21.01.2020 20:00:00 -0,6 -1,1 - - 4 2 - - WNW 1040,4 5 0 0,0
21.01.2020 19:00:00 0,5 -0,4 - - 4 2 - - - 1040,6 8 0 0,0
21.01.2020 18:00:00 1,2 -0,3 - - 4 2 - - N 1040,6 10 0 0,0
21.01.2020 17:00:00 4,3 1,7 - - 4 2 - - N 1040,5 10 18 0,0
21.01.2020 16:00:00 6,6 2,7 - - 8 4 - - - 1040,5 10 60 0,0
21.01.2020 15:00:00 7,5 3,4 - - 8 4 - - - 1040,8 10 60 0,0
21.01.2020 14:00:00 7,5 3,7 - - 5 3 - - ENE 1041,1 26 60 0,0
21.01.2020 13:00:00 6,8 3,9 - - 5 3 - - - 1042,1 10 60 0,0
21.01.2020 12:00:00 4,5 3,7 - - 8 4 - - NNW 1042,3 9 60 0,0
21.01.2020 11:00:00 2,4 2,1 - - 4 2 - - - 1043,3 6 60 0,2
21.01.2020 10:00:00 -0,6 -0,8 - - 4 2 - - WNW 1043,2 3,5 36 0,0
21.01.2020 09:00:00 -3,0 -3,3 5,0 7,7 5 3 - - - 1043,0 3,0 0 0,0
21.01.2020 08:00:00 -4,8 -5,1 - - 4 2 - - WNW 1043,0 2,0 0 0,0
21.01.2020 07:00:00 -4,4 -4,6 - - 4 2 - - NNW 1042,9 0,2 0 0,0
21.01.2020 06:00:00 -3,1 -3,3 - - 4 2 - - NNW 1043,0 0,9 0 0,0
21.01.2020 05:00:00 -3,0 -3,3 - - 5 3 - - NW 1042,8 - 0 0,0
21.01.2020 04:00:00 -3,0 -3,3 - - 2 1 - - N 1042,8 0,1 0 0,0

tt = Température de l'air
td = dewpoint
tt -20cm = Température de l'air -20cm
tt -100cm = Température de l'air -100cm
ff = Vitesse du vent
fx = gusts
dd = Direction du vent
ppp = reduced air pressure
vv = visibility
sd = Ensoleillement
rr = Quantités de précipitations

stations d'obs. à proximité